Location: Madison
(43.0730°N, 89.3819°W)
Time: 18:11:20
(UTC-06:00)

ISS - Visible Passes

Search period start: 23 January 2019 00:00
Search period end: 02 February 2019 00:00
Orbit: 404 x 410 km, 51.6° (Epoch: 24 January)

Date Brightness Start Highest point End Pass type
(mag) Time Alt. Az. Time Alt. Az. Time Alt. Az.
23 Jan -2.5 17:47:07 10° SSW 17:49:56 26° SE 17:52:01 14° E visible
23 Jan -1.5 19:23:08 10° W 19:24:45 24° W 19:24:45 24° W visible
24 Jan -3.8 18:31:37 10° WSW 18:34:55 73° NNW 18:35:42 48° NE visible
25 Jan -3.7 17:40:18 10° SW 17:43:33 63° SE 17:46:34 12° ENE visible
25 Jan -1.6 19:17:25 10° W 19:19:18 23° NW 19:19:18 23° NW visible
26 Jan -2.7 18:25:40 10° W 18:28:47 37° NNW 18:30:06 25° NNE visible
27 Jan -3.4 17:34:03 10° WSW 17:37:18 57° NNW 17:40:34 10° NE visible
27 Jan -1.5 19:11:47 10° WNW 19:13:34 19° NNW 19:13:34 19° NNW visible
28 Jan -2.1 18:19:57 10° WNW 18:22:43 24° NNW 18:24:17 17° NNE visible
29 Jan -1.5 19:05:59 10° NW 19:07:41 17° NNW 19:07:41 17° NNW visible
30 Jan -1.8 18:14:13 10° NW 18:16:42 19° N 18:18:20 14° NNE visible
31 Jan -1.7 18:59:53 10° NW 19:01:42 18° N 19:01:42 18° N visible
01 Feb -1.8 18:08:17 10° NW 18:10:40 18° N 18:12:22 13° NE visible
01 Feb -0.6 19:44:54 10° NW 19:45:05 11° NW 19:45:05 11° NW visible
